{"data":{"norad_id":37765,"epoch":"2026-09-19T11:38:34.766304Z","epoch_age_seconds":116822,"freshness":"FRESH","line1":"1 37765U 11039A   26262.48512461  .00000248  00000+0  56038-4 0  9990","line2":"2 37765  98.2467 152.7504 0009983 334.1812 199.2344 14.64556132807757","mean_motion":14.64556132,"eccentricity":0.0009983,"inclination_deg":98.2467,"raan_deg":152.7504,"arg_perigee_deg":334.1812,"mean_anomaly_deg":199.2344,"bstar":5.6038e-5,"rev_number":80775,"period_min":98.323305507829,"perigee_km":671.45616238771,"apogee_km":685.54544542699,"semimajor_km":7056.6378039073,"source":"CELESTRAK","updated_at":"2026-09-20T09:00:13.806110Z"}}